Wahoo, NE

11:02 AM CDT on July 24, 2017 (GMT -0500)
Wahoo Municipal

Weather History for KAHQ - October, 2011

Change the Weather History Date:

Thursday, October 6, 2011

  Actual Average Record
Temperature  
Mean Temperature 68 °F -  
Max Temperature 82 °F 69 °F 93 °F (1963)
Min Temperature 55 °F 42 °F 25 °F (2012)
Cooling Degree Days 4    
Growing Degree Days 18 (Base 50)    
Moisture  
Dew Point 43 °F    
Average Humidity 41    
Maximum Humidity 63    
Minimum Humidity 28    
Precipitation  
Precipitation 0.00 in - - ()
Sea Level Pressure  
Sea Level Pressure 29.91 in    
Wind  
Wind Speed 14 mph (SSE)    
Max Wind Speed 33 mph    
Max Gust Speed 41 mph    
Visibility 10 miles    
Events Rain    
Averages and records for this station are not official NWS values.
T = Trace of Precipitation, MM = Missing Value Source: NWS Daily Summary

Daily Weather History Graph

Daily Weather History Graph

Search for Another Location

Airport or City:

Trip Planner

Search our weather history database for the weather conditions in past years. The results will help you decide how hot, cold, wet, or windy it might be!

Date:

Astronomy

Oct. 06, 2011 Rise Set
Actual Time 7:28 AM CDT 7:00 PM CDT
Civil Twilight 7:00 AM CDT 7:27 PM CDT
Nautical Twilight 6:28 AM CDT 7:59 PM CDT
Astronomical Twilight 5:56 AM CDT 8:31 PM CDT
Moon 4:16 PM CDT (10/6) 2:14 AM CDT (10/6)
Length of Visible Light 12h 27m
Length of Day
11h 32m
Waxing Gibbous, 75% of the Moon is Illuminated
Oct 6
Waxing Gibbous
Oct 11
Full
Oct 19
Last Quarter
Oct 26
New
Nov 2
First Quarter

Hourly Weather History & Observations

Time (CDT) Temp. Dew Point Humidity Pressure Visibility Wind Dir Wind Speed Gust Speed Precip Events Conditions
12:15 AM 62.6 °F 37.4 °F 39% 29.97 in 10.0 mi South 11.5 mph - N/A   Clear
12:35 AM 64.4 °F 37.4 °F 37% 29.97 in 10.0 mi South 11.5 mph 18.4 mph N/A   Clear
12:55 AM 64.4 °F 37.4 °F 37% 29.97 in 10.0 mi South 15.0 mph - N/A   Clear
1:15 AM 62.6 °F 37.4 °F 39% 29.97 in 10.0 mi South 13.8 mph 18.4 mph N/A   Clear
1:35 AM 62.6 °F 39.2 °F 42% 29.97 in 10.0 mi South 11.5 mph - N/A   Clear
1:55 AM 60.8 °F 39.2 °F 45% 29.97 in 10.0 mi South 10.4 mph - N/A   Clear
2:15 AM 62.6 °F 41.0 °F 45% 29.98 in 10.0 mi SSE 9.2 mph - N/A   Scattered Clouds
2:35 AM 62.6 °F 41.0 °F 45% 29.97 in 10.0 mi SSE 8.1 mph - N/A   Overcast
2:55 AM 62.6 °F 41.0 °F 45% 29.97 in 10.0 mi SSE 10.4 mph - N/A   Mostly Cloudy
3:15 AM 60.8 °F 41.0 °F 48% 29.97 in 10.0 mi SSE 10.4 mph - N/A   Scattered Clouds
3:35 AM 60.8 °F 41.0 °F 48% 29.96 in 10.0 mi South 9.2 mph - N/A   Scattered Clouds
3:55 AM 59.0 °F 41.0 °F 51% 29.96 in 10.0 mi SSE 6.9 mph - N/A   Mostly Cloudy
4:35 AM 59.0 °F 42.8 °F 55% 29.97 in 10.0 mi SSE 8.1 mph - N/A   Scattered Clouds
4:55 AM 59.0 °F 41.0 °F 51% 29.97 in 10.0 mi SSE 9.2 mph - N/A   Mostly Cloudy
5:15 AM 59.0 °F 42.8 °F 55% 29.96 in 10.0 mi SSE 10.4 mph - N/A   Scattered Clouds
5:35 AM 59.0 °F 42.8 °F 55% 29.96 in 10.0 mi SSE 9.2 mph - N/A   Scattered Clouds
5:55 AM 57.2 °F 42.8 °F 59% 29.96 in 10.0 mi SSE 10.4 mph - N/A   Clear
6:15 AM 57.2 °F 42.8 °F 59% 29.96 in 10.0 mi SSE 8.1 mph - N/A   Clear
6:35 AM 55.4 °F 42.8 °F 63% 29.96 in 10.0 mi SSE 8.1 mph - N/A   Clear
6:55 AM 57.2 °F 42.8 °F 59% 29.95 in 10.0 mi SSE 8.1 mph - N/A   Scattered Clouds
7:15 AM 55.4 °F 42.8 °F 63% 29.95 in 10.0 mi SSE 8.1 mph - N/A   Scattered Clouds
7:35 AM 55.4 °F 42.8 °F 63% 29.95 in 10.0 mi SSE 8.1 mph - N/A   Clear
7:55 AM 59.0 °F 42.8 °F 55% 29.95 in 10.0 mi SSE 11.5 mph - N/A   Clear
8:15 AM 60.8 °F 42.8 °F 52% 29.95 in 10.0 mi SSE 12.7 mph 18.4 mph N/A   Clear
8:55 AM 60.8 °F 42.8 °F 52% 29.96 in 10.0 mi SSE 15.0 mph 20.7 mph N/A   Clear
9:15 AM 62.6 °F 42.8 °F 48% 29.96 in 10.0 mi SSE 16.1 mph 23.0 mph N/A   Clear
9:35 AM 64.4 °F 42.8 °F 45% 29.95 in 10.0 mi SSE 16.1 mph 24.2 mph N/A   Scattered Clouds
9:55 AM 68.0 °F 42.8 °F 40% 29.95 in 10.0 mi South 18.4 mph 27.6 mph N/A   Clear
10:15 AM 68.0 °F 42.8 °F 40% 29.95 in 10.0 mi South 18.4 mph 27.6 mph N/A   Clear
10:35 AM 68.0 °F 42.8 °F 40% 29.95 in 10.0 mi North - - N/A   Scattered Clouds
10:55 AM 68.0 °F 42.8 °F 40% 29.95 in 10.0 mi South 16.1 mph 20.7 mph N/A   Mostly Cloudy
11:15 AM 68.0 °F 42.8 °F 40% 29.95 in 10.0 mi SSE 10.4 mph 23.0 mph N/A   Overcast
11:35 AM 68.0 °F 44.6 °F 43% 29.94 in 10.0 mi North - - N/A   Overcast
11:55 AM 68.0 °F 44.6 °F 43% 29.94 in 10.0 mi SSE 16.1 mph - N/A   Overcast
12:15 PM 69.8 °F 44.6 °F 40% 29.93 in 7.0 mi SSE 15.0 mph 19.6 mph N/A   Overcast
12:35 PM 69.8 °F 46.4 °F 43% 29.92 in 10.0 mi SSE 17.3 mph 23.0 mph N/A   Overcast
12:55 PM 69.8 °F 46.4 °F 43% 29.92 in 10.0 mi South 19.6 mph 28.8 mph N/A Rain Light Rain
1:15 PM 73.4 °F 46.4 °F 38% 29.90 in 10.0 mi South 21.9 mph 27.6 mph N/A   Mostly Cloudy
1:35 PM 75.2 °F 46.4 °F 36% 29.88 in 7.0 mi SSE 21.9 mph 38.0 mph N/A   Scattered Clouds
1:55 PM 78.8 °F 46.4 °F 32% 29.87 in 10.0 mi SSE 25.3 mph 33.4 mph N/A   Clear
2:15 PM 80.6 °F 46.4 °F 30% 29.86 in 10.0 mi SSE 23.0 mph 35.7 mph N/A   Clear
2:35 PM 82.4 °F 50.0 °F 32% 29.85 in 10.0 mi South 33.4 mph 41.4 mph N/A   Clear
3:15 PM 82.4 °F 48.2 °F 30% 29.84 in 10.0 mi SSE 29.9 mph 38.0 mph N/A   Scattered Clouds
3:35 PM 80.6 °F 50.0 °F 34% 29.84 in 10.0 mi South 28.8 mph 39.1 mph N/A   Mostly Cloudy
3:55 PM 80.6 °F 48.2 °F 32% 29.84 in 10.0 mi SSE 26.5 mph 40.3 mph N/A   Overcast
4:35 PM 80.6 °F 48.2 °F 32% 29.83 in 10.0 mi South 23.0 mph 35.7 mph N/A   Overcast
4:55 PM 80.6 °F 46.4 °F 30% 29.83 in 10.0 mi SSE 25.3 mph 35.7 mph N/A   Mostly Cloudy
5:15 PM 78.8 °F 46.4 °F 32% 29.83 in 10.0 mi SSE 25.3 mph 39.1 mph N/A   Mostly Cloudy
5:35 PM 80.6 °F 46.4 °F 30% 29.82 in 10.0 mi SSE 24.2 mph 39.1 mph N/A   Mostly Cloudy
5:55 PM 80.6 °F 44.6 °F 28% 29.82 in 10.0 mi SSE 26.5 mph 40.3 mph N/A   Scattered Clouds
6:15 PM 78.8 °F 44.6 °F 30% 29.82 in 10.0 mi SSE 29.9 mph 41.4 mph N/A   Scattered Clouds
6:35 PM 78.8 °F 44.6 °F 30% 29.82 in 10.0 mi SSE 27.6 mph 41.4 mph N/A   Clear
6:55 PM 78.8 °F 42.8 °F 28% 29.83 in 10.0 mi SSE 25.3 mph 36.8 mph N/A   Clear
7:15 PM 77.0 °F 42.8 °F 29% 29.83 in 10.0 mi SSE 23.0 mph 31.1 mph N/A   Clear
7:35 PM 77.0 °F 41.0 °F 28% 29.83 in 10.0 mi SSE 18.4 mph 27.6 mph N/A   Clear
7:55 PM 73.4 °F 41.0 °F 31% 29.84 in 10.0 mi SSE 19.6 mph 24.2 mph N/A   Clear
8:15 PM 73.4 °F 41.0 °F 31% 29.84 in 10.0 mi SSE 18.4 mph 24.2 mph N/A   Clear
8:35 PM 73.4 °F 41.0 °F 31% 29.84 in 10.0 mi SSE 18.4 mph 24.2 mph N/A   Clear
8:55 PM 73.4 °F 39.2 °F 29% 29.85 in 10.0 mi SSE 19.6 mph 27.6 mph N/A   Clear
9:35 PM 71.6 °F 41.0 °F 33% 29.86 in 10.0 mi SSE 19.6 mph 26.5 mph N/A   Clear
9:55 PM 71.6 °F 41.0 °F 33% 29.87 in 10.0 mi SSE 17.3 mph 24.2 mph N/A   Clear
10:15 PM 71.6 °F 41.0 °F 33% 29.86 in 10.0 mi SSE 13.8 mph 24.2 mph N/A   Clear
10:35 PM 69.8 °F 41.0 °F 35% 29.87 in 10.0 mi SSE 17.3 mph 24.2 mph N/A   Clear
10:55 PM 69.8 °F 42.8 °F 38% 29.86 in 10.0 mi SSE 19.6 mph 25.3 mph N/A   Clear
11:15 PM 69.8 °F 42.8 °F 38% 29.86 in 10.0 mi SSE 20.7 mph 29.9 mph N/A   Clear
11:35 PM 69.8 °F 42.8 °F 38% 29.85 in 10.0 mi SSE 18.4 mph 27.6 mph N/A   Clear
11:55 PM 68.0 °F 44.6 °F 43% 29.85 in 10.0 mi SSE 18.4 mph 26.5 mph N/A   Clear